Home   Weather   Township of Fairfield   Past weeks
Flag for USA

Past Weather in Township of Fairfield, Michigan, USA — Yesterday and Last 2 Weeks

Now
25 °F

Overcast.


Feels Like: 19 °F
Forecast: 36 / 20 °F
Wind: 5 mph from South

Location: Capital City Airport

Current Time: Dec 7, 2019 at 9:00:06 am

Latest Report: Dec 7, 2019 at 7:53 am


Visibility: 10 mi

Pressure: 30.43 "Hg

Humidity: 75%

Dew Point: 18 °F

Location of Township of FairfieldLocation

Past Weather in Township of Fairfield — Graph

°F

Township of Fairfield Temperature Yesterday

Maximum temperature yesterday: 40 °F (at 3:53 am)
Minimum temperature yesterday: 26 °F (at 11:53 pm)
Average temperature yesterday: 34 °F

High & Low Weather Summary for the Past Weeks

 TemperatureHumidityPressure
High52 °F (Nov 27, 8:53 am)96% (Nov 26, 6:07 am)30.50 "Hg (Nov 26, 6:07 am)
Low21 °F (Nov 23, 5:53 am)54% (Nov 22, 3:53 pm)29.28 "Hg (Nov 27, 8:04 am)
Average35 °F79%29.87 "Hg
* Reported Nov 22 7:02 am — Dec 7 7:53 am, Township of Fairfield. Weather by CustomWeather, © 2019

Note: Actual official high and low records may vary slightly from our data, if they occured in-between our weather recording intervals... More about our weather records

Township of Fairfield Weather History for the Previous 24 Hours

Scroll right to see more
 ConditionsComfort  
Time TempWeatherWind HumidityBarometerVisibility
7:53 am
Sat, Dec 7
25 °FOvercast.5 mph75%30.43 "Hg10 mi
6:53 am25 °FOvercast.3 mph75%30.43 "Hg10 mi
5:53 am24 °FPassing clouds.3 mph77%30.41 "Hg10 mi
4:53 am23 °FClear.No wind78%30.41 "Hg10 mi
3:53 am25 °FClear.No wind75%30.41 "Hg10 mi
2:53 am25 °FClear.3 mph78%30.39 "Hg10 mi
1:53 am26 °FClear.No wind71%30.40 "Hg10 mi
12:53 am25 °FClear.No wind75%30.40 "Hg10 mi
11:53 pm
Fri, Dec 6
26 °FOvercast.No wind71%30.41 "Hg10 mi
10:53 pm27 °FPassing clouds.No wind63%30.39 "Hg10 mi
10:36 pm27 °FPassing clouds.3 mph63%30.36 "Hg10 mi
10:03 pm27 °FPassing clouds.5 mph63%30.36 "Hg10 mi
9:53 pm28 °FPassing clouds.6 mph64%30.38 "Hg10 mi
9:25 pm29 °FOvercast.9 mph64%30.35 "Hg10 mi
8:53 pm29 °FOvercast.7 mph66%30.36 "Hg10 mi
7:53 pm30 °FOvercast.7 mph64%30.36 "Hg10 mi
6:53 pm30 °FOvercast.8 mph61%30.34 "Hg10 mi
5:53 pm31 °FOvercast.8 mph59%30.33 "Hg10 mi
4:53 pm31 °FOvercast.8 mph61%30.31 "Hg10 mi
4:19 pm31 °FOvercast.12 mph61%30.27 "Hg10 mi
3:53 pm32 °FOvercast.12 mph61%30.28 "Hg10 mi
2:53 pm34 °FOvercast.15 mph59%30.24 "Hg10 mi
1:53 pm35 °FOvercast.12 mph56%30.22 "Hg10 mi
12:53 pm35 °FOvercast.13 mph59%30.20 "Hg10 mi
11:53 am35 °FMore clouds than sun.13 mph64%30.19 "Hg10 mi
10:53 am35 °FMostly cloudy.9 mph75%30.17 "Hg10 mi
9:53 am36 °FPartly sunny.12 mph70%30.14 "Hg10 mi
9:27 am35 °FScattered clouds.10 mph72%30.10 "Hg10 mi
Weather by CustomWeather, © 2019

See weather overview

Advertising